Location: Azul
(36.7830°S, 59.8500°W)
Time: 08:49:54
(UTC-03:00)

NOAA 19 - Pass Details

Date: 01 November 2021
Orbit: 840 x 861 km, 99.2° (Epoch: 07 December)

Event Time Altitude Azimuth Distance (km) Brightness Sun altitude
Rises 21:43:46 0° 182° (S) 3,474 9.0 -23.4°
Reaches altitude 10° 21:46:39 10° 196° (SSW) 2,529 8.4 -23.8°
Maximum altitude 21:50:51 22° 244° (WSW) 1,807 7.6 -24.4°
Drops below altitude 10° 21:55:00 10° 293° (WNW) 2,502 7.9 -25.0°
Sets 21:57:51 0° 307° (NW) 3,428 8.5 -25.4°
